Temp
-12 -11 -11 -11 -11 -11 -11 -11 -11 -12 -12 -12 -13 -12 -13 -13 -13 -13 -13 -13 -13 -13 -13 -13 -13 -13 -13 -12 -12 -12 -12 -12 -12 -12 -12 -12 -12 -13 -12 -12 -12 -12 -12 -12 -12 -12 -12 -12 -12 -12 -12 -12 -12 -12 -12 -12 -12 -12 -12 -12 -12 -12 -12
-12 -12 -12 -12 -12 -11 -12 -11 -11 -12 -12 -12 -12 -12 -13 -13 -13 -13 -13 -13 -13 -13 -13 -13 -13 -13 -13 -12 -12 -12 -12 -12 -12 -12 -12 -12 -12 -13 -12 -12 -12 -12 -12 -12 -12 -12 -12 -12 -13 -12 -12 -12 -12 -12 -12 -12 -12 -12 -12 -12 -12 -12 -12
-12 -12 -12 -12 -12 -12 -12 -12 -12 -12 -12 -12 -12 -12 -12 -13 -13 -13 -13 -13 -13 -13 -13 -13 -13 -13 -13 -13 -12 -12 -12 -12 -12 -12 -12 -12 -12 -12 -12 -12 -12 -12 -12 -12 -12 -13 -12 -12 -13 -13 -12 -12 -12 -12 -12 -12 -12 -12 -12 -12 -12 -12 -12
-12 -12 -12 -12 -12 -12 -12 -12 -12 -12 -12 -12 -12 -12 -12 -12 -13 -13 -13 -13 -13 -13 -13 -13 -13 -13 -13 -13 -12 -12 -12 -12 -12 -12 -13 -13 -12 -12 -12 -13 -12 -12 -12 -12 -12 -12 -12 -12 -12 -12 -12 -12 -12 -12 -12 -12 -12 -12 -12 -12 -12 -12 -12
-12 -12 -12 -12 -12 -12 -12 -12 -12 -12 -13 -13 -12 -12 -12 -12 -13 -13 -13 -13 -13 -13 -13 -13 -13 -13 -13 -13 -13 -13 -13 -12 -12 -12 -12 -13 -13 -12 -13 -13 -13 -12 -12 -12 -12 -12 -12 -12 -12 -12 -12 -12 -13 -13 -12 -12 -12 -12 -12 -12 -12 -12 -12
-12 -12 -12 -12 -12 -12 -12 -12 -12 -13 -13 -13 -13 -13 -13 -13 -13 -13 -13 -13 -13 -13 -13 -13 -13 -13 -13 -13 -13 -13 -13 -13 -12 -12 -12 -13 -13 -12 -12 -13 -13 -13 -13 -12 -12 -12 -12 -12 -12 -12 -13 -13 -13 -13 -12 -12 -12 -12 -12 -12 -12 -12 -12
-13 -13 -13 -13 -12 -12 -12 -13 -13 -13 -13 -13 -13 -13 -13 -13 -13 -13 -13 -13 -13 -13 -13 -13 -13 -13 -13 -13 -13 -13 -13 -13 -13 -13 -13 -13 -13 -13 -12 -12 -13 -13 -13 -13 -12 -12 -12 -12 -12 -12 -13 -13 -13 -13 -12 -12 -12 -12 -12 -12 -12 -13 -13
-13 -13 -13 -13 -13 -13 -13 -13 -13 -13 -13 -13 -13 -13 -13 -13 -13 -13 -13 -13 -13 -13 -14 -14 -14 -14 -13 -13 -14 -13 -13 -13 -13 -13 -13 -13 -13 -13 -13 -13 -13 -13 -13 -13 -12 -12 -12 -12 -12 -12 -12 -12 -13 -13 -12 -12 -12 -12 -13 -13 -13 -13 -13
-13 -13 -13 -13 -13 -13 -13 -13 -13 -13 -13 -14 -14 -14 -13 -13 -13 -13 -13 -13 -13 -13 -14 -14 -14 -14 -14 -14 -14 -13 -13 -14 -14 -14 -13 -13 -13 -13 -13 -12 -12 -12 -13 -13 -13 -13 -13 -13 -12 -12 -12 -12 -13 -13 -13 -13 -12 -13 -13 -13 -13 -13 -13
-13 -13 -13 -13 -13 -13 -13 -13 -13 -13 -13 -14 -14 -14 -14 -14 -13 -14 -14 -13 -13 -13 -13 -13 -14 -14 -14 -14 -14 -14 -13 -14 -14 -14 -13 -13 -13 -13 -13 -12 -12 -12 -12 -12 -13 -13 -13 -13 -12 -12 -12 -12 -13 -13 -13 -13 -13 -13 -13 -13 -13 -13 -13
-13 -13 -13 -13 -13 -13 -13 -13 -13 -13 -13 -14 -14 -14 -14 -14 -14 -14 -14 -14 -13 -13 -14 -13 -14 -14 -14 -14 -14 -14 -14 -14 -14 -14 -14 -14 -14 -13 -13 -13 -12 -12 -12 -12 -12 -13 -13 -12 -12 -12 -12 -12 -12 -13 -13 -13 -13 -13 -13 -13 -13 -13 -13
-13 -13 -13 -13 -13 -13 -13 -13 -13 -13 -14 -14 -14 -14 -14 -14 -14 -14 -14 -14 -14 -13 -14 -14 -14 -14 -14 -14 -14 -14 -14 -14 -14 -14 -14 -14 -14 -14 -14 -13 -13 -13 -13 -12 -12 -12 -12 -12 -12 -13 -13 -12 -12 -13 -13 -13 -13 -13 -13 -13 -13 -13 -13
-13 -13 -13 -13 -13 -13 -13 -14 -14 -14 -14 -14 -14 -14 -14 -14 -14 -14 -14 -14 -14 -14 -14 -14 -14 -14 -14 -14 -14 -14 -14 -14 -14 -14 -14 -14 -14 -14 -14 -14 -14 -13 -13 -13 -13 -13 -13 -12 -13 -13 -12 -12 -12 -13 -13 -13 -13 -13 -13 -13 -13 -13 -13
-13 -13 -13 -13 -13 -13 -13 -14 -14 -14 -14 -14 -14 -14 -14 -14 -14 -14 -14 -14 -14 -14 -14 -14 -14 -14 -14 -14 -14 -14 -14 -14 -14 -14 -14 -14 -14 -14 -14 -14 -14 -14 -13 -13 -13 -13 -13 -12 -13 -12 -12 -12 -12 -13 -13 -13 -13 -13 -13 -13 -13 -13 -13
-13 -13 -13 -13 -13 -13 -14 -14 -14 -14 -14 -14 -14 -14 -14 -14 -14 -14 -14 -14 -14 -14 -14 -14 -14 -14 -14 -14 -14 -14 -14 -14 -14 -14 -14 -14 -14 -14 -14 -14 -14 -14 -13 -13 -13 -13 -13 -12 -13 -12 -12 -12 -12 -12 -13 -13 -13 -14 -13 -13 -13 -13 -13
-14 -14 -14 -14 -14 -14 -14 -14 -14 -14 -14 -14 -14 -14 -14 -14 -14 -14 -14 -14 -14 -14 -14 -14 -14 -14 -14 -14 -14 -14 -14 -14 -14 -14 -14 -14 -14 -14 -14 -14 -14 -14 -13 -13 -13 -13 -13 -12 -12 -12 -12 -12 -12 -12 -13 -13 -13 -13 -13 -13 -13 -13 -13
-14 -14 -14 -14 -14 -14 -14 -14 -14 -14 -14 -14 -14 -14 -14 -15 -15 -14 -14 -14 -14 -14 -14 -14 -14 -14 -14 -14 -14 -14 -14 -14 -14 -14 -14 -14 -14 -14 -14 -14 -14 -14 -13 -13 -13 -13 -13 -12 -12 -12 -12 -12 -12 -12 -13 -13 -13 -13 -13 -13 -13 -13 -13
-15 -15 -15 -15 -15 -15 -15 -15 -15 -15 -15 -14 -14 -14 -15 -15 -15 -15 -15 -14 -14 -14 -14 -14 -14 -14 -15 -15 -15 -15 -14 -14 -14 -14 -14 -14 -14 -14 -14 -14 -14 -14 -13 -13 -12 -12 -12 -12 -13 -13 -13 -13 -12 -12 -13 -13 -13 -13 -13 -13 -13 -13 -13
-15 -15 -15 -15 -15 -15 -15 -15 -15 -15 -15 -15 -15 -15 -15 -15 -15 -15 -15 -15 -15 -15 -14 -15 -15 -15 -15 -15 -15 -15 -15 -15 -14 -14 -14 -14 -14 -14 -14 -14 -14 -14 -14 -13 -12 -12 -13 -13 -13 -13 -13 -13 -12 -12 -12 -13 -13 -13 -13 -13 -14 -13 -13
-16 -16 -15 -15 -15 -15 -15 -15 -15 -15 -15 -15 -15 -15 -15 -15 -15 -15 -15 -15 -15 -15 -15 -15 -15 -15 -15 -15 -15 -15 -15 -15 -15 -15 -14 -14 -14 -14 -14 -14 -14 -14 -14 -14 -13 -13 -13 -13 -13 -13 -13 -13 -12 -12 -12 -13 -13 -13 -13 -13 -14 -13 -13
-16 -16 -16 -16 -16 -16 -16 -16 -16 -16 -16 -15 -15 -15 -15 -15 -15 -15 -15 -15 -15 -15 -15 -15 -15 -15 -15 -15 -15 -15 -15 -15 -15 -15 -15 -15 -14 -14 -14 -14 -14 -14 -14 -14 -14 -13 -13 -13 -13 -13 -13 -12 -12 -12 -12 -13 -13 -13 -13 -13 -13 -13 -13
-16 -16 -16 -16 -16 -16 -16 -16 -16 -16 -16 -16 -16 -15 -15 -15 -15 -15 -15 -15 -15 -15 -15 -15 -15 -15 -15 -15 -15 -15 -15 -15 -15 -15 -15 -15 -15 -14 -14 -14 -14 -14 -14 -14 -14 -13 -13 -13 -13 -12 -12 -12 -12 -12 -12 -12 -13 -13 -13 -13 -13 -13 -13
-16 -16 -16 -16 -16 -16 -16 -16 -16 -16 -16 -16 -16 -16 -15 -15 -15 -15 -15 -15 -15 -15 -15 -15 -15 -15 -15 -15 -15 -15 -15 -15 -15 -15 -15 -15 -15 -15 -14 -14 -14 -14 -14 -14 -14 -14 -13 -13 -13 -12 -12 -12 -12 -12 -12 -12 -13 -13 -13 -14 -14 -13 -13
-17 -16 -16 -16 -16 -16 -16 -16 -16 -16 -16 -16 -16 -16 -16 -16 -16 -15 -15 -15 -15 -15 -15 -15 -15 -15 -15 -15 -15 -15 -15 -15 -15 -15 -15 -15 -15 -15 -15 -15 -14 -14 -14 -14 -14 -14 -13 -13 -13 -13 -13 -12 -12 -12 -12 -13 -13 -13 -13 -13 -14 -14 -13
-17 -17 -17 -16 -16 -16 -16 -16 -16 -16 -16 -16 -16 -16 -16 -16 -16 -16 -16 -16 -16 -16 -16 -16 -16 -16 -16 -15 -15 -15 -15 -15 -15 -15 -15 -15 -15 -15 -15 -15 -15 -14 -14 -14 -14 -14 -13 -13 -13 -13 -13 -13 -13 -13 -13 -13 -13 -13 -13 -13 -13 -14 -14
-17 -17 -17 -17 -17 -16 -16 -16 -16 -16 -16 -16 -16 -16 -16 -16 -16 -16 -16 -16 -16 -16 -16 -16 -16 -16 -16 -16 -15 -15 -15 -15 -15 -15 -15 -15 -15 -15 -15 -15 -15 -15 -14 -14 -14 -14 -14 -14 -13 -13 -13 -13 -13 -13 -13 -13 -13 -13 -13 -13 -13 -14 -14
-17 -17 -17 -17 -17 -17 -17 -17 -17 -16 -16 -16 -16 -16 -16 -16 -16 -16 -16 -16 -16 -16 -16 -16 -16 -16 -16 -16 -16 -15 -15 -15 -15 -15 -15 -15 -15 -15 -15 -15 -15 -15 -14 -14 -14 -14 -14 -14 -14 -13 -13 -13 -13 -13 -13 -13 -13 -12 -13 -13 -13 -13 -14
-17 -17 -17 -17 -17 -17 -17 -17 -17 -17 -17 -17 -17 -16 -16 -16 -16 -16 -16 -16 -16 -16 -16 -16 -16 -16 -16 -16 -16 -16 -15 -15 -15 -15 -15 -15 -15 -15 -15 -15 -15 -15 -15 -15 -15 -14 -14 -14 -14 -14 -13 -13 -13 -13 -13 -13 -13 -13 -13 -13 -13 -13 -14
-17 -17 -17 -17 -17 -17 -17 -17 -17 -17 -17 -17 -17 -17 -17 -17 -17 -17 -17 -17 -16 -16 -16 -16 -16 -16 -16 -16 -16 -16 -16 -15 -15 -15 -15 -15 -15 -15 -15 -15 -15 -15 -15 -15 -15 -14 -14 -14 -14 -14 -14 -14 -13 -13 -13 -13 -13 -13 -13 -13 -13 -14 -14
-18 -17 -17 -17 -18 -17 -17 -17 -17 -17 -17 -17 -17 -17 -17 -17 -17 -17 -17 -17 -17 -17 -17 -17 -16 -16 -16 -16 -16 -16 -16 -16 -16 -15 -15 -15 -15 -15 -15 -15 -15 -15 -15 -15 -15 -15 -15 -14 -14 -14 -14 -14 -13 -13 -13 -13 -13 -13 -13 -13 -13 -14 -14
-18 -18 -18 -18 -18 -18 -18 -18 -18 -18 -18 -18 -18 -18 -17 -17 -17 -17 -17 -17 -17 -17 -17 -17 -17 -17 -16 -16 -16 -17 -16 -16 -16 -16 -16 -15 -15 -15 -15 -15 -15 -15 -16 -16 -15 -15 -15 -15 -15 -14 -14 -14 -14 -13 -13 -13 -13 -14 -14 -14 -14 -14 -14
-18 -18 -18 -18 -18 -18 -18 -18 -18 -18 -18 -18 -18 -18 -18 -18 -18 -18 -18 -17 -17 -17 -17 -17 -17 -17 -17 -17 -17 -17 -17 -16 -16 -16 -16 -16 -15 -15 -15 -15 -15 -15 -16 -16 -16 -16 -15 -15 -15 -15 -14 -14 -14 -14 -14 -14 -14 -14 -14 -14 -14 -14 -14
-18 -18 -18 -18 -18 -18 -18 -18 -18 -18 -18 -18 -18 -18 -18 -18 -18 -18 -18 -18 -18 -18 -18 -17 -17 -17 -17 -17 -17 -17 -17 -17 -16 -16 -16 -16 -16 -16 -15 -15 -15 -15 -15 -16 -16 -16 -15 -15 -15 -15 -15 -14 -14 -14 -14 -14 -14 -14 -14 -14 -14 -14 -14
-19 -19 -19 -19 -19 -19 -19 -19 -19 -19 -19 -19 -19 -19 -19 -19 -19 -19 -19 -18 -18 -18 -18 -18 -18 -18 -18 -18 -17 -17 -17 -17 -17 -16 -16 -16 -16 -16 -16 -16 -15 -15 -15 -16 -16 -16 -16 -15 -15 -15 -15 -15 -14 -14 -14 -14 -14 -14 -14 -14 -14 -14 -14
-19 -19 -19 -19 -19 -19 -19 -20 -20 -20 -20 -20 -20 -20 -19 -19 -19 -19 -19 -19 -19 -19 -19 -18 -18 -18 -18 -18 -18 -18 -17 -17 -17 -17 -16 -16 -16 -16 -16 -16 -16 -16 -16 -16 -16 -16 -16 -16 -16 -16 -15 -15 -15 -15 -15 -14 -14 -14 -14 -14 -14 -14 -14
-20 -20 -20 -20 -20 -20 -20 -20 -21 -21 -21 -21 -21 -21 -21 -21 -20 -20 -20 -20 -20 -19 -19 -19 -19 -19 -18 -18 -18 -18 -18 -18 -17 -17 -17 -17 -17 -16 -16 -16 -16 -16 -16 -16 -16 -16 -16 -16 -16 -16 -16 -15 -15 -15 -15 -15 -15 -15 -14 -14 -14 -14 -14
-20 -20 -20 -21 -21 -21 -21 -21 -21 -21 -22 -22 -22 -22 -22 -22 -22 -22 -22 -21 -21 -20 -20 -20 -19 -19 -19 -19 -19 -19 -18 -18 -18 -18 -17 -17 -17 -17 -16 -16 -16 -16 -16 -16 -16 -16 -16 -16 -16 -16 -16 -16 -15 -15 -15 -15 -15 -15 -15 -15 -15 -15 -15
Height
5824 5823 5822 5822 5821 5820 5819 5818 5817 5815 5812 5811 5811 5811 5809 5809 5810 5809 5807 5806 5806 5805 5804 5803 5803 5802 5801 5800 5800 5799 5797 5797 5796 5796 5795 5794 5794 5794 5793 5793 5792 5792 5793 5793 5793 5794 5796 5797 5798 5799 5799 5800 5801 5802 5803 5803 5804 5805 5805 5805 5807 5807 5807
5822 5821 5820 5819 5818 5817 5816 5815 5814 5813 5811 5809 5808 5806 5805 5806 5807 5806 5804 5803 5803 5802 5801 5800 5799 5798 5797 5797 5796 5796 5794 5793 5792 5791 5791 5790 5790 5790 5790 5790 5789 5789 5789 5789 5789 5790 5792 5793 5794 5795 5796 5797 5798 5798 5799 5800 5801 5802 5802 5803 5804 5805 5805
5819 5818 5817 5816 5815 5814 5813 5812 5811 5810 5809 5808 5806 5804 5802 5802 5802 5802 5801 5800 5800 5799 5798 5797 5795 5794 5794 5793 5792 5791 5790 5788 5788 5788 5787 5787 5786 5786 5786 5786 5786 5785 5785 5785 5785 5786 5787 5788 5789 5791 5792 5793 5794 5795 5795 5796 5797 5799 5799 5800 5802 5803 5803
5816 5815 5814 5813 5812 5811 5810 5809 5809 5808 5807 5806 5804 5802 5800 5799 5798 5797 5797 5796 5796 5795 5794 5793 5791 5790 5789 5788 5788 5787 5786 5785 5784 5784 5784 5784 5783 5782 5782 5782 5782 5782 5781 5781 5781 5782 5783 5784 5785 5786 5787 5789 5790 5791 5792 5793 5794 5795 5797 5798 5799 5800 5801
5813 5812 5811 5810 5809 5808 5807 5806 5805 5805 5804 5803 5802 5800 5798 5797 5795 5794 5793 5793 5792 5791 5790 5788 5787 5785 5784 5783 5783 5782 5781 5780 5780 5780 5780 5779 5779 5779 5778 5778 5778 5778 5778 5778 5778 5778 5779 5780 5780 5781 5783 5785 5787 5787 5788 5789 5790 5792 5794 5795 5796 5797 5798
5810 5809 5808 5807 5806 5805 5804 5802 5801 5801 5800 5800 5799 5797 5795 5794 5793 5792 5791 5790 5789 5788 5786 5784 5783 5782 5780 5779 5779 5778 5777 5775 5774 5775 5775 5775 5774 5775 5775 5773 5774 5775 5775 5775 5774 5774 5776 5776 5776 5778 5779 5781 5783 5783 5784 5785 5787 5789 5791 5791 5792 5793 5794
5807 5806 5805 5804 5803 5802 5801 5799 5798 5797 5796 5796 5795 5794 5793 5791 5790 5788 5787 5786 5785 5784 5782 5782 5781 5780 5779 5777 5776 5774 5773 5771 5769 5769 5770 5769 5769 5770 5770 5769 5770 5771 5771 5771 5770 5771 5772 5772 5773 5774 5775 5776 5779 5779 5780 5782 5783 5785 5786 5787 5788 5790 5791
5804 5803 5802 5801 5800 5799 5797 5796 5795 5794 5793 5792 5791 5790 5790 5788 5786 5785 5784 5783 5781 5779 5778 5779 5778 5777 5776 5774 5772 5771 5769 5767 5766 5765 5765 5765 5765 5766 5766 5765 5766 5767 5767 5767 5767 5767 5768 5768 5769 5770 5770 5772 5774 5775 5776 5777 5778 5780 5781 5782 5783 5786 5787
5801 5800 5799 5797 5796 5795 5794 5793 5791 5790 5789 5788 5787 5787 5786 5785 5783 5782 5780 5779 5777 5775 5774 5774 5774 5772 5771 5770 5767 5766 5765 5763 5762 5761 5760 5759 5759 5760 5761 5761 5761 5762 5762 5762 5763 5763 5764 5764 5765 5765 5766 5767 5769 5771 5771 5772 5775 5776 5777 5777 5780 5782 5784
5797 5796 5795 5794 5793 5791 5790 5789 5788 5787 5786 5785 5784 5783 5783 5782 5780 5778 5777 5776 5774 5772 5770 5770 5770 5769 5767 5765 5763 5761 5760 5759 5758 5756 5754 5753 5753 5754 5755 5755 5756 5758 5758 5758 5758 5759 5759 5760 5761 5761 5762 5763 5765 5767 5768 5770 5772 5772 5772 5774 5777 5779 5780
5794 5793 5792 5790 5789 5788 5787 5785 5785 5783 5783 5782 5781 5780 5779 5778 5777 5775 5774 5772 5771 5769 5767 5766 5766 5765 5764 5762 5759 5757 5755 5755 5755 5753 5751 5749 5749 5749 5749 5749 5751 5752 5752 5752 5753 5754 5754 5755 5756 5757 5758 5759 5760 5762 5763 5766 5768 5767 5768 5771 5774 5775 5777
5791 5789 5788 5787 5785 5784 5783 5782 5781 5780 5779 5778 5777 5776 5775 5774 5773 5772 5770 5768 5767 5766 5765 5763 5762 5761 5760 5758 5756 5753 5751 5750 5750 5749 5747 5746 5745 5745 5744 5744 5745 5746 5746 5746 5747 5749 5749 5750 5752 5753 5753 5754 5756 5757 5758 5760 5762 5763 5765 5768 5770 5771 5773
5787 5785 5784 5783 5782 5781 5780 5778 5777 5776 5776 5775 5774 5773 5772 5770 5769 5768 5766 5764 5763 5762 5762 5761 5759 5758 5756 5754 5752 5750 5748 5746 5746 5745 5743 5742 5741 5741 5740 5740 5740 5741 5741 5741 5742 5743 5745 5746 5747 5748 5748 5749 5751 5753 5754 5755 5758 5759 5761 5764 5765 5766 5768
5782 5781 5780 5779 5778 5777 5776 5774 5774 5773 5772 5771 5770 5769 5767 5766 5765 5764 5762 5760 5759 5759 5759 5757 5756 5755 5753 5751 5749 5746 5744 5742 5741 5741 5740 5738 5737 5736 5736 5736 5737 5737 5736 5737 5738 5739 5740 5741 5742 5743 5743 5744 5746 5748 5749 5751 5753 5755 5756 5758 5759 5760 5763
5777 5776 5775 5774 5774 5772 5771 5770 5769 5768 5767 5767 5766 5765 5763 5762 5761 5760 5758 5757 5756 5756 5755 5754 5752 5751 5749 5747 5745 5743 5741 5739 5737 5737 5736 5735 5733 5732 5733 5733 5733 5733 5733 5733 5734 5735 5736 5737 5738 5739 5739 5740 5742 5743 5744 5746 5749 5750 5751 5753 5755 5756 5757
5773 5772 5771 5770 5769 5768 5767 5766 5765 5764 5763 5762 5761 5760 5759 5758 5757 5756 5754 5753 5753 5752 5751 5750 5748 5747 5745 5744 5742 5740 5738 5735 5734 5733 5732 5731 5729 5728 5728 5729 5729 5729 5729 5730 5731 5732 5732 5732 5733 5733 5734 5736 5737 5737 5739 5742 5743 5744 5746 5748 5751 5752 5753
5768 5767 5766 5765 5764 5763 5762 5761 5760 5759 5759 5758 5757 5756 5755 5754 5752 5751 5750 5749 5748 5747 5746 5746 5745 5743 5742 5740 5738 5736 5734 5732 5730 5729 5728 5727 5725 5724 5724 5724 5724 5724 5725 5727 5728 5728 5728 5728 5728 5729 5729 5731 5731 5732 5734 5736 5738 5739 5741 5743 5746 5748 5750
5763 5763 5762 5761 5760 5759 5758 5757 5756 5755 5754 5753 5752 5751 5750 5749 5748 5746 5745 5745 5744 5743 5742 5741 5740 5739 5738 5736 5734 5732 5730 5728 5726 5725 5724 5722 5721 5720 5719 5719 5719 5720 5721 5722 5721 5722 5723 5724 5724 5724 5725 5726 5727 5727 5729 5731 5733 5735 5736 5739 5742 5744 5746
5759 5758 5757 5756 5755 5754 5753 5752 5751 5750 5749 5748 5747 5746 5745 5744 5743 5741 5740 5739 5738 5738 5737 5736 5736 5735 5734 5732 5730 5728 5726 5724 5723 5721 5719 5718 5716 5715 5714 5714 5714 5715 5716 5716 5715 5716 5718 5719 5719 5720 5721 5722 5722 5722 5723 5726 5729 5730 5732 5735 5737 5739 5741
5755 5754 5753 5751 5750 5750 5749 5748 5747 5745 5745 5744 5743 5741 5740 5739 5738 5736 5735 5734 5733 5732 5732 5731 5731 5730 5729 5728 5726 5724 5722 5720 5718 5717 5715 5713 5712 5711 5710 5709 5710 5709 5710 5711 5711 5712 5713 5714 5714 5715 5716 5717 5717 5717 5717 5719 5722 5724 5727 5730 5731 5733 5735
5751 5749 5748 5747 5746 5745 5744 5743 5742 5741 5740 5739 5737 5736 5735 5733 5732 5731 5730 5729 5728 5727 5726 5726 5725 5725 5724 5723 5722 5720 5718 5716 5714 5712 5710 5709 5707 5706 5705 5704 5705 5705 5705 5706 5707 5708 5708 5709 5709 5709 5710 5710 5710 5712 5713 5714 5716 5719 5723 5725 5725 5727 5729
5746 5745 5744 5743 5741 5740 5739 5738 5737 5736 5735 5733 5732 5731 5730 5728 5727 5726 5724 5723 5722 5721 5720 5720 5720 5719 5719 5718 5717 5715 5713 5711 5709 5708 5706 5704 5703 5701 5700 5700 5700 5700 5700 5701 5702 5702 5702 5703 5704 5704 5704 5704 5704 5707 5709 5710 5711 5714 5717 5719 5721 5722 5723
5741 5740 5739 5738 5736 5735 5734 5733 5732 5730 5729 5728 5727 5725 5724 5723 5721 5720 5719 5717 5716 5715 5714 5714 5713 5713 5713 5712 5712 5710 5708 5706 5704 5703 5702 5700 5699 5697 5696 5695 5695 5695 5695 5696 5697 5697 5697 5698 5698 5698 5699 5699 5700 5702 5704 5705 5706 5709 5711 5714 5715 5717 5718
5736 5735 5734 5732 5731 5730 5729 5727 5726 5725 5724 5722 5721 5720 5719 5717 5716 5715 5713 5712 5711 5709 5708 5707 5707 5707 5706 5706 5706 5705 5703 5701 5699 5698 5697 5696 5695 5693 5692 5690 5690 5690 5690 5690 5691 5691 5691 5692 5693 5694 5695 5695 5696 5697 5699 5700 5702 5704 5706 5708 5710 5712 5713
5732 5730 5728 5727 5726 5725 5724 5722 5721 5720 5718 5717 5716 5714 5713 5712 5710 5709 5707 5706 5705 5704 5703 5702 5701 5701 5700 5699 5699 5699 5698 5697 5695 5693 5692 5691 5690 5689 5688 5686 5685 5685 5684 5684 5685 5686 5686 5687 5688 5689 5690 5690 5691 5692 5695 5696 5697 5698 5700 5701 5703 5706 5708
5727 5725 5723 5722 5721 5719 5718 5717 5715 5714 5713 5711 5710 5708 5707 5706 5705 5703 5701 5700 5699 5698 5697 5696 5695 5694 5694 5693 5693 5693 5692 5692 5690 5688 5687 5686 5685 5685 5684 5682 5681 5680 5679 5680 5680 5681 5681 5682 5682 5683 5684 5685 5686 5687 5689 5691 5691 5693 5695 5696 5698 5700 5702
5722 5719 5718 5717 5716 5714 5713 5711 5710 5708 5707 5705 5704 5702 5701 5700 5698 5697 5695 5694 5692 5691 5690 5690 5689 5688 5687 5687 5687 5687 5686 5686 5685 5684 5682 5681 5680 5680 5679 5679 5677 5676 5675 5675 5675 5676 5677 5677 5677 5678 5678 5680 5681 5682 5684 5686 5687 5688 5690 5692 5693 5695 5698
5716 5714 5713 5712 5710 5709 5707 5705 5704 5702 5700 5699 5697 5696 5694 5693 5692 5690 5689 5687 5685 5684 5683 5683 5682 5682 5681 5680 5680 5680 5680 5680 5679 5678 5677 5676 5675 5675 5675 5674 5673 5672 5671 5670 5670 5670 5671 5672 5673 5674 5674 5674 5676 5677 5678 5680 5682 5684 5685 5686 5687 5689 5692
5711 5709 5708 5707 5705 5703 5701 5699 5697 5695 5694 5692 5690 5688 5687 5685 5684 5683 5682 5680 5679 5677 5676 5675 5675 5675 5674 5674 5673 5673 5673 5673 5673 5672 5672 5671 5670 5670 5670 5670 5669 5668 5667 5666 5665 5665 5666 5666 5667 5669 5669 5670 5671 5672 5673 5674 5676 5678 5680 5681 5682 5683 5686
5705 5704 5703 5701 5699 5697 5695 5692 5690 5689 5687 5685 5683 5681 5679 5678 5676 5675 5674 5673 5671 5670 5669 5668 5667 5667 5667 5667 5667 5666 5666 5666 5666 5666 5666 5665 5665 5664 5664 5664 5665 5664 5662 5661 5661 5660 5661 5661 5661 5663 5664 5665 5667 5667 5668 5668 5670 5672 5674 5675 5676 5677 5680
5700 5699 5697 5695 5692 5690 5688 5686 5683 5681 5679 5677 5675 5673 5671 5670 5668 5667 5666 5665 5664 5663 5662 5661 5660 5659 5659 5659 5660 5659 5659 5659 5659 5659 5659 5659 5659 5659 5658 5658 5659 5659 5658 5657 5656 5656 5656 5656 5656 5657 5658 5660 5662 5662 5662 5663 5664 5666 5668 5669 5671 5672 5675
5695 5693 5691 5689 5686 5684 5681 5679 5676 5674 5671 5669 5667 5665 5663 5661 5659 5658 5657 5656 5656 5655 5653 5653 5652 5651 5651 5651 5651 5652 5652 5652 5652 5652 5652 5652 5653 5653 5653 5652 5653 5653 5653 5652 5652 5651 5651 5651 5651 5652 5653 5655 5656 5658 5658 5658 5659 5660 5662 5664 5665 5667 5669
5690 5688 5685 5683 5681 5678 5675 5672 5669 5666 5664 5661 5659 5656 5654 5652 5650 5649 5648 5647 5646 5645 5644 5644 5643 5643 5643 5642 5643 5643 5644 5645 5645 5645 5645 5645 5646 5646 5647 5647 5647 5647 5647 5647 5647 5647 5646 5646 5646 5647 5648 5649 5651 5653 5653 5653 5654 5656 5657 5659 5660 5662 5663
5685 5682 5679 5677 5674 5671 5668 5665 5662 5658 5656 5653 5650 5648 5645 5643 5641 5640 5638 5637 5636 5635 5635 5634 5634 5634 5634 5634 5634 5634 5635 5636 5637 5637 5638 5638 5638 5639 5639 5640 5641 5641 5641 5641 5641 5642 5641 5641 5641 5642 5643 5644 5645 5646 5647 5649 5650 5651 5652 5654 5655 5657 5658
5679 5677 5674 5671 5668 5664 5661 5658 5654 5651 5648 5645 5642 5639 5636 5634 5632 5630 5629 5628 5627 5625 5625 5625 5624 5624 5624 5625 5625 5625 5626 5627 5628 5629 5630 5630 5631 5631 5632 5633 5634 5635 5635 5635 5636 5636 5636 5636 5636 5637 5637 5638 5639 5640 5642 5643 5645 5646 5647 5649 5650 5652 5653
5675 5672 5669 5666 5663 5659 5656 5653 5649 5645 5641 5638 5635 5631 5628 5625 5623 5621 5619 5618 5616 5615 5615 5615 5614 5614 5614 5615 5615 5616 5617 5618 5619 5620 5621 5623 5624 5624 5625 5626 5627 5628 5629 5629 5630 5630 5631 5631 5631 5632 5632 5633 5634 5635 5636 5638 5639 5641 5642 5643 5645 5647 5649
5671 5668 5665 5662 5659 5655 5652 5649 5645 5641 5637 5633 5629 5626 5622 5619 5616 5613 5611 5609 5607 5606 5605 5604 5604 5604 5604 5604 5605 5607 5608 5609 5610 5611 5612 5614 5615 5616 5617 5618 5619 5621 5622 5623 5624 5624 5625 5626 5626 5626 5627 5627 5628 5629 5630 5632 5634 5635 5637 5638 5640 5641 5643
Wind_Speed
22 23 23 23 22 22 22 22 22 23 25 26 25 26 26 26 26 27 27 26 26 26 26 26 26 27 27 27 27 28 28 28 28 29 29 28 27 25 24 22 22 22 23 25 28 28 26 25 25 24 23 23 22 21 20 19 18 17 17 16 14 13 13
23 23 23 23 23 23 23 23 23 23 24 26 27 28 28 26 26 27 27 27 26 26 26 27 27 28 28 29 29 30 31 31 30 30 30 30 29 28 27 24 23 23 23 25 28 28 26 26 27 26 25 24 23 22 22 22 21 19 19 17 15 14 14
24 24 24 24 24 24 23 23 23 23 24 25 26 29 30 29 27 27 27 27 26 26 27 28 29 30 29 29 30 31 32 31 30 31 32 31 30 30 30 28 26 24 23 24 27 27 27 28 29 28 28 26 24 25 25 24 23 20 20 18 16 15 15
25 25 25 25 25 24 24 24 24 24 24 24 25 27 29 31 30 29 29 29 28 28 27 28 30 31 30 29 30 31 31 31 30 30 31 31 31 31 31 30 28 26 23 22 25 27 27 28 29 30 30 29 27 27 26 25 23 22 21 19 17 17 17
25 25 25 25 25 25 25 25 25 25 24 24 25 26 28 30 30 30 30 30 30 30 31 31 31 31 31 30 30 30 31 33 32 30 29 31 31 31 31 31 30 28 24 23 24 26 27 29 31 32 33 31 29 28 27 26 25 23 21 20 19 19 18
26 26 26 26 26 26 27 27 27 27 26 25 25 26 28 29 30 30 30 30 31 32 34 34 32 32 32 32 30 30 30 32 34 32 30 30 31 31 31 32 31 29 27 25 25 26 27 29 31 33 34 32 29 29 29 28 26 24 23 22 21 20 19
27 27 27 27 28 28 28 28 28 28 28 27 26 27 28 29 30 30 30 31 32 33 33 33 33 32 32 33 33 31 30 31 33 33 30 30 30 30 30 31 30 29 29 27 26 26 27 30 31 31 35 34 31 30 30 29 29 27 26 24 23 22 21
28 28 29 29 30 30 29 29 29 29 29 28 28 28 28 28 30 30 30 31 33 34 33 32 33 33 33 34 35 33 31 30 29 30 29 30 30 29 29 30 30 30 30 29 28 27 27 30 30 30 34 34 32 32 32 32 31 30 29 27 25 23 22
29 30 31 31 32 31 30 30 30 29 29 29 29 28 28 28 29 30 30 31 32 34 34 32 32 34 33 34 35 34 32 30 27 27 28 29 29 29 30 31 30 31 30 30 29 28 28 30 29 31 34 34 34 34 34 33 32 31 31 30 27 24 23
32 32 33 33 33 33 32 31 30 30 30 30 30 29 29 28 28 29 29 30 31 32 33 33 33 34 34 34 34 33 33 31 29 27 28 30 30 29 30 30 30 31 31 31 30 29 29 29 29 31 34 36 36 35 34 34 32 32 33 31 27 24 24
33 34 35 35 35 34 34 32 32 32 32 32 31 30 29 28 28 29 29 30 30 31 31 32 33 33 34 35 35 34 32 31 30 29 29 30 30 29 29 29 30 31 32 32 31 30 30 30 30 32 34 36 37 35 34 34 33 34 34 31 27 25 24
34 35 36 36 36 36 35 34 33 33 33 32 32 31 30 29 28 29 29 30 30 30 30 32 33 33 34 34 35 34 32 30 29 30 31 31 30 30 30 31 31 31 32 32 31 31 31 31 31 32 34 36 38 37 36 35 35 36 35 29 27 26 25
34 35 36 37 37 36 35 35 34 34 33 33 32 32 30 29 29 29 29 30 30 30 31 32 33 33 33 33 34 34 32 30 29 30 31 31 30 31 32 32 32 32 32 32 31 31 32 32 33 33 34 36 39 39 37 36 36 36 33 29 28 28 27
36 36 37 37 37 37 36 35 35 34 34 33 33 32 31 30 30 30 30 31 32 32 32 33 33 33 32 32 33 34 33 31 31 31 31 31 31 32 32 32 32 31 31 31 31 32 33 33 33 33 35 37 39 39 39 37 36 35 34 32 32 31 30
37 37 37 38 38 37 37 36 35 35 35 34 34 33 32 31 31 31 31 32 32 33 33 33 33 32 31 32 33 33 32 31 31 31 31 31 32 33 32 32 32 31 31 31 31 32 32 32 32 33 35 37 38 40 40 38 36 36 36 34 33 33 32
38 38 38 38 38 38 37 37 36 36 36 35 35 34 33 33 32 32 33 33 33 33 33 32 32 32 32 32 32 33 33 32 31 30 31 32 32 33 33 32 32 31 30 30 30 31 31 31 33 35 34 33 35 39 40 39 38 38 38 36 34 33 32
38 39 39 38 38 38 37 37 37 37 37 36 36 35 35 34 34 34 35 35 34 34 34 33 32 32 32 32 32 33 33 32 32 31 30 32 32 33 33 33 32 31 28 26 29 31 31 32 35 36 34 32 35 39 41 41 41 41 40 39 36 35 34
39 39 39 38 38 37 38 38 38 38 38 38 37 37 36 36 36 36 36 36 35 34 34 34 32 32 33 33 33 34 34 33 33 32 31 31 31 32 33 32 32 32 29 27 30 31 31 33 36 36 34 33 35 41 44 43 42 43 42 40 38 37 37
38 38 38 38 38 38 38 38 39 39 39 39 38 38 38 38 38 38 38 38 37 36 36 35 35 34 34 35 35 35 35 34 33 33 33 32 31 31 31 30 30 32 32 31 32 33 32 34 37 36 35 36 38 43 46 44 44 44 42 40 38 38 39
37 38 38 38 38 38 39 39 40 40 40 40 40 40 40 40 40 40 40 40 40 39 38 37 37 36 36 36 36 35 36 35 34 34 34 33 32 30 31 30 30 31 33 34 35 34 33 34 35 34 35 39 41 44 46 46 46 45 44 42 40 38 39
36 37 37 38 38 39 39 40 41 41 41 42 42 42 42 43 43 43 43 43 43 42 41 40 40 39 39 38 36 35 36 36 35 34 34 34 33 31 30 32 31 31 33 34 34 33 31 32 35 36 37 40 42 44 45 45 44 44 45 44 41 39 39
36 36 37 37 38 39 40 41 42 42 43 43 44 44 45 45 45 45 45 46 46 45 45 44 43 41 40 39 37 36 36 36 35 35 34 34 33 32 30 31 32 31 32 33 33 34 33 33 35 37 36 36 38 41 43 43 42 42 44 44 42 41 41
37 37 38 38 39 39 40 41 42 43 43 44 44 45 45 46 46 46 46 47 47 47 47 46 45 43 41 39 38 36 35 36 36 35 34 33 33 33 32 31 31 31 32 32 32 35 36 34 35 35 33 33 35 39 42 44 44 43 42 43 43 43 44
38 39 39 40 40 41 41 42 42 43 44 44 45 45 45 46 46 46 47 47 48 48 48 47 46 44 42 41 39 38 36 35 35 35 35 34 33 32 33 32 31 31 32 32 33 35 37 36 35 35 36 37 38 40 42 44 45 45 41 41 43 44 46
39 40 40 41 42 42 43 43 44 45 45 45 46 46 47 47 47 48 48 48 49 49 49 48 47 45 43 42 40 39 37 35 35 35 35 34 33 31 31 32 31 31 32 33 34 36 38 38 35 32 33 36 38 40 42 43 44 45 43 43 44 44 45
40 41 42 42 42 43 44 44 45 46 47 47 48 48 49 49 49 50 50 50 50 50 50 49 49 48 46 43 41 40 38 36 34 35 36 35 33 32 31 31 30 30 30 31 33 35 37 39 38 33 31 34 36 37 39 40 42 43 43 42 41 42 44
41 42 43 43 43 44 45 46 47 47 48 49 49 50 50 50 51 51 51 51 52 51 51 50 50 49 48 46 43 41 39 37 35 34 35 36 34 32 31 30 30 29 29 29 30 34 36 38 39 36 32 31 34 36 36 38 40 40 39 39 39 40 42
42 43 43 44 45 46 46 47 48 49 49 50 51 51 51 51 51 51 51 52 52 52 52 51 50 50 49 47 45 42 40 39 37 35 35 36 36 33 31 30 29 29 29 29 30 32 35 37 38 38 35 31 31 35 36 38 40 39 39 39 41 42 42
42 43 44 45 45 46 47 48 49 50 50 51 52 52 52 52 52 52 51 52 52 52 53 52 51 50 48 47 46 43 42 40 39 36 35 36 36 35 33 31 29 29 30 30 30 29 31 34 37 39 37 33 31 33 36 39 42 42 41 42 43 44 44
44 44 45 46 46 47 48 49 50 51 51 52 52 53 53 53 53 52 52 52 52 52 52 52 52 51 50 48 46 44 42 41 41 39 36 36 36 36 34 32 30 29 30 30 30 30 30 31 34 37 38 33 30 30 32 36 41 42 43 43 45 46 46
45 46 46 47 48 49 50 51 52 52 53 54 54 54 54 54 54 54 53 52 52 52 52 52 52 52 51 49 47 45 43 42 42 41 39 37 37 36 36 35 32 31 31 31 30 30 30 30 32 35 36 34 30 28 28 30 34 37 39 40 42 44 44
45 45 46 47 48 49 50 51 52 52 53 54 55 55 56 56 56 56 55 54 53 53 52 52 51 51 51 50 48 46 44 42 42 42 41 39 38 38 37 36 35 33 33 32 30 29 29 29 30 32 34 35 33 31 29 29 29 32 35 37 40 41 41
43 43 44 45 47 48 49 50 51 52 53 54 55 55 56 56 56 56 56 56 55 54 53 53 52 51 51 50 49 47 45 43 42 43 43 41 41 40 38 37 37 35 34 34 32 30 28 28 30 30 30 31 32 33 32 31 31 32 34 37 39 39 40
42 43 44 46 47 48 50 51 52 53 54 55 55 56 56 57 57 57 56 56 55 55 54 53 53 52 51 50 49 48 47 44 43 42 43 43 42 42 40 38 37 36 36 36 34 33 30 28 28 29 27 26 27 30 32 32 33 34 35 37 38 38 38
40 41 42 43 44 45 46 47 48 49 50 51 52 54 55 56 56 56 57 57 56 55 55 54 53 53 51 50 49 48 47 46 44 43 43 43 43 43 42 40 38 37 37 37 36 35 33 29 27 28 28 26 24 25 28 32 34 34 35 37 38 38 38
36 37 37 38 38 39 39 40 41 42 43 44 46 47 48 50 51 52 53 54 55 55 55 55 54 53 52 50 48 47 46 45 44 43 43 43 43 43 44 43 41 39 37 37 37 36 35 33 29 28 28 28 27 26 26 29 32 34 34 36 38 39 39
32 32 33 33 34 34 35 36 36 37 38 38 39 40 41 42 44 45 46 48 49 51 52 53 54 53 53 51 49 47 45 44 43 42 43 43 43 43 43 44 43 42 40 38 37 37 36 35 32 30 29 29 30 29 27 26 29 33 33 33 35 38 39
Wind_Direction
297 296 295 294 292 290 291 292 293 295 298 303 306 306 307 311 313 312 312 312 312 312 312 312 310 307 305 303 300 298 296 293 292 289 287 286 284 280 278 282 285 286 280 261 250 251 251 248 245 243 244 244 241 241 242 240 236 234 235 232 226 227 230
296 295 294 292 291 290 290 290 291 292 295 300 303 305 307 309 309 308 310 311 311 311 311 310 307 304 303 301 299 297 294 292 289 287 286 285 283 280 279 280 280 282 281 265 250 249 251 247 244 242 243 243 241 239 239 238 236 235 236 235 228 225 230
294 295 294 292 290 289 288 289 289 290 292 295 299 302 304 307 308 309 309 310 311 312 311 310 307 304 303 302 299 295 293 293 291 286 283 283 283 280 278 279 278 278 279 268 250 245 248 246 242 241 242 241 240 239 237 236 235 236 238 238 232 227 229
291 293 292 291 289 288 288 288 288 289 291 294 297 298 301 304 307 309 308 309 310 310 310 307 304 302 301 298 296 293 291 291 293 289 283 280 281 279 276 276 277 275 275 269 253 245 247 247 244 242 240 238 237 238 237 235 236 237 237 239 236 230 230
289 289 289 288 287 288 288 288 288 289 292 295 296 297 298 300 304 306 307 309 309 308 307 304 302 300 298 297 296 294 290 285 286 288 286 279 275 275 274 273 273 272 271 269 259 252 251 250 246 242 241 238 234 236 235 233 234 236 234 236 237 234 232
289 288 287 286 286 287 288 289 290 292 295 296 296 297 298 299 301 303 304 306 307 307 305 304 304 303 301 300 298 295 290 284 280 281 283 278 272 270 271 269 268 269 268 264 260 257 256 255 250 244 242 240 235 235 235 231 231 232 232 235 236 237 236
288 287 286 286 287 288 289 291 293 295 297 297 297 298 298 299 299 301 303 304 305 305 306 308 309 308 305 303 301 296 289 284 281 279 278 276 272 269 267 266 265 265 264 260 258 258 257 258 257 247 241 239 235 235 235 232 229 227 229 233 234 236 238
288 286 286 287 288 289 290 291 293 294 295 296 297 297 297 298 298 300 302 304 305 306 308 311 311 309 308 306 305 300 291 286 285 283 279 275 273 268 265 265 264 261 261 260 259 258 255 256 257 249 242 238 235 234 233 232 230 227 227 230 231 233 237
288 287 288 289 289 289 290 290 291 292 294 294 295 295 296 296 297 300 302 304 306 307 308 310 309 308 309 308 306 302 293 286 284 282 276 271 270 266 263 265 264 260 259 259 260 259 255 253 253 251 247 242 237 234 233 232 231 228 228 230 231 232 235
290 289 289 289 289 289 289 289 290 291 291 292 293 294 294 295 296 298 301 302 304 305 306 307 307 307 309 309 308 304 295 288 283 278 272 266 264 261 260 262 263 260 258 258 259 259 256 252 252 253 251 248 242 236 234 234 231 229 229 230 231 232 235
290 289 289 288 288 287 287 288 288 289 290 291 292 293 293 294 295 296 298 299 300 302 304 305 306 307 308 310 311 307 299 292 287 281 274 267 261 257 255 255 256 255 254 254 256 258 255 250 249 252 252 250 244 237 235 233 229 229 230 229 231 234 234
288 287 286 286 286 285 286 286 286 287 289 290 291 292 292 292 293 294 296 296 298 301 304 305 306 307 308 311 313 310 302 295 289 282 276 270 262 257 256 254 252 251 250 249 251 253 253 251 249 249 251 250 243 236 234 232 228 230 232 231 234 239 237
287 285 283 282 282 282 283 283 283 285 286 288 290 290 291 291 292 292 293 294 296 299 303 305 306 307 309 311 312 311 306 297 290 283 277 272 265 259 257 256 255 253 250 248 248 249 250 252 252 250 250 250 244 236 234 232 230 230 233 232 232 236 240
287 284 282 280 280 280 281 281 281 283 285 286 288 289 290 290 290 290 290 291 294 299 302 303 304 306 308 309 310 313 312 303 294 288 282 277 270 261 258 258 258 256 253 250 249 249 250 252 253 253 251 250 246 240 234 230 228 228 230 230 227 228 233
286 284 281 280 280 280 280 280 281 283 284 286 287 288 289 288 288 289 288 290 294 298 300 300 302 304 306 307 309 312 314 310 301 293 287 284 276 267 262 260 259 257 256 253 250 250 251 251 252 252 250 247 247 244 237 229 226 227 229 229 228 228 230
283 282 280 280 280 280 280 280 281 283 284 286 286 287 287 288 288 288 288 290 294 297 298 298 300 302 304 306 307 309 312 314 310 301 291 288 283 273 267 262 259 257 255 255 254 253 253 250 249 251 253 250 249 246 239 231 228 228 228 227 227 230 232
282 281 280 279 279 279 279 280 281 283 283 284 285 285 286 287 288 288 289 291 293 294 296 297 298 300 302 305 306 307 309 311 313 310 299 291 285 278 271 264 260 256 253 259 265 259 252 248 249 253 257 257 252 245 238 233 230 229 227 225 226 229 230
282 281 280 279 279 278 279 280 281 282 283 284 285 285 286 287 288 288 289 290 292 293 294 295 296 297 299 303 305 306 307 307 309 311 306 296 287 280 275 267 261 254 248 257 269 263 250 246 249 253 257 259 253 243 238 235 232 231 230 227 227 230 231
282 281 280 280 279 279 280 281 282 283 283 284 285 286 287 287 288 289 289 290 291 291 292 292 293 294 296 300 303 303 304 305 305 307 308 304 293 283 275 269 262 254 244 243 251 253 248 246 251 253 254 258 252 240 236 235 231 232 232 229 227 230 233
282 281 281 281 280 280 281 281 282 283 284 284 285 286 287 287 288 288 289 290 290 291 291 291 292 293 294 296 299 300 301 302 302 302 304 307 302 290 278 270 265 259 249 240 239 242 246 249 253 254 254 257 250 237 233 233 230 231 232 229 227 229 232
281 281 281 282 282 282 282 282 282 283 284 284 285 285 286 286 287 288 288 289 290 290 290 290 290 292 293 294 296 298 298 298 299 299 300 304 307 300 284 273 270 264 252 244 239 239 245 251 253 252 254 255 246 233 233 234 230 230 232 229 228 229 231
283 282 282 283 283 283 283 283 283 283 283 284 284 284 285 285 286 286 287 288 289 289 289 290 290 290 291 293 295 296 296 296 296 296 297 300 304 305 294 279 274 269 255 246 241 237 241 249 253 252 251 248 237 231 234 237 235 234 233 231 230 230 231
286 285 285 284 284 284 284 284 284 284 284 284 284 284 285 285 285 286 286 287 288 289 289 290 290 290 289 290 292 294 295 294 293 293 294 296 299 303 300 287 275 269 261 251 243 238 238 244 251 253 252 247 238 233 235 237 237 237 234 231 231 231 231
287 287 286 286 285 285 285 285 285 285 285 285 285 285 285 285 285 285 286 287 287 288 289 289 290 290 289 289 290 292 293 291 290 290 290 292 294 298 301 294 279 269 265 259 250 243 239 240 245 249 251 251 246 239 239 241 240 236 231 229 232 232 233
288 287 287 286 286 285 285 285 285 284 284 284 285 285 285 285 285 285 286 286 286 287 288 288 288 289 289 288 288 289 290 289 287 287 287 287 289 293 297 296 285 271 267 263 255 247 243 243 247 249 246 248 249 244 242 244 243 236 228 226 229 231 232
288 288 287 287 287 287 286 286 285 285 285 285 285 285 285 285 285 285 285 285 285 285 285 286 287 287 287 287 286 286 287 287 285 284 283 283 284 286 291 294 288 275 269 266 257 248 244 245 250 253 247 243 245 246 244 243 243 239 232 228 231 234 234
288 288 288 288 288 287 287 287 286 286 286 285 285 285 285 284 284 284 284 284 283 283 283 283 284 285 285 285 284 283 283 284 283 281 280 280 279 280 284 289 288 279 271 267 258 250 247 246 248 253 255 247 240 241 243 240 239 239 236 234 235 236 236
289 288 288 288 288 287 287 287 286 286 286 286 285 285 285 284 284 283 283 283 282 282 282 281 281 282 283 283 283 281 280 281 280 279 277 277 276 276 277 282 285 282 274 267 260 252 250 250 248 249 257 259 245 236 236 236 236 237 237 236 236 236 235
290 290 290 290 289 289 288 288 287 287 286 286 286 285 285 284 283 283 282 282 281 281 281 280 280 280 280 280 280 279 278 277 277 276 275 274 273 273 272 274 278 281 277 270 263 256 252 252 250 247 251 260 257 244 237 235 234 234 235 236 238 238 236
293 292 292 292 291 291 290 289 289 288 287 287 286 286 285 284 283 282 282 281 281 280 279 279 279 278 278 277 277 277 275 274 273 273 272 272 271 270 270 269 271 275 277 273 265 259 254 252 251 248 246 252 259 256 245 237 235 236 236 237 238 238 237
294 294 293 293 292 292 291 291 290 289 288 287 287 286 285 284 283 282 281 280 279 279 278 278 277 277 276 275 274 274 273 271 270 270 269 268 269 269 269 268 268 269 273 274 271 266 261 255 252 249 245 246 251 255 253 245 240 238 239 239 239 238 237
295 295 295 294 294 293 292 292 291 290 289 288 287 286 285 285 284 283 281 280 278 277 276 276 275 275 274 274 273 271 270 268 268 268 267 266 265 266 267 268 267 266 268 271 273 273 269 262 255 250 246 245 246 248 253 255 252 245 241 241 240 239 238
297 297 296 296 295 294 293 292 291 290 289 288 287 286 285 284 284 283 282 281 279 278 276 275 274 274 273 272 272 270 268 266 265 265 265 264 263 263 264 265 266 266 265 267 270 272 271 266 260 254 248 245 244 244 248 254 256 252 247 244 243 241 240
300 299 299 298 297 296 295 294 292 291 289 288 286 285 284 283 282 281 281 280 279 278 277 275 274 273 273 272 271 270 268 266 263 262 262 262 261 261 261 261 262 263 264 264 265 267 268 267 264 258 250 244 243 243 244 247 251 253 251 248 246 243 241
304 304 304 304 303 302 301 300 299 297 295 293 291 289 286 284 282 281 280 279 278 277 276 275 274 273 273 272 271 270 269 267 264 261 259 259 259 259 259 259 259 260 261 262 262 263 265 266 266 261 253 246 244 246 247 246 247 249 250 246 243 241 240
311 312 312 313 313 313 313 312 310 308 305 302 299 296 293 290 287 285 282 280 278 276 275 274 274 273 272 271 271 270 269 268 265 262 259 258 257 257 257 257 256 256 257 259 260 261 261 263 265 263 257 248 243 246 252 251 247 246 247 245 241 239 239
320 323 325 326 327 328 328 328 327 324 321 317 312 307 303 299 295 291 288 284 281 278 276 274 273 272 271 271 270 268 268 267 266 263 260 258 256 255 255 255 255 254 254 255 257 258 259 259 261 262 261 255 248 247 252 256 249 243 243 245 243 239 239